Meteo Giornale » Osservazioni meteo Italia » Roma-Ciampino

ore: 00:50 - Osservazioni Meteo Roma-Ciampino
Lat. 41° 47' N Lon. 12° 35' E Alt. 129 metri s.l.m.

nuvoloso Europe/Rome

19 °C

Nuvoloso

Temp. 24 Ore

11 °C

21 °C

Sud/Sud-Est

29.6 Km/h

Dew point 8 °C

Umidità 48 %

Visibilità  10 Km

Il sole sorge alle ore 06:09

Il sole tramonta alle ore 20:05

Data e Ora Cielo e Fenomeni T °C DP °C Um. % Pres. hPa Vis. km Vento km/h
Oggi h: 00:50 nuvoloso Nuvoloso 19 8 48 1011 10 S/SE 29.6
Oggi h: 00:20 poco_nuvoloso Poco Nuvoloso 19 8 48 1011 10 S/SE 24
Ieri h: 23:50 sereno Sereno 18 8 51 1012 10 S/SE 25.9
Ieri h: 23:20 sereno Sereno 18 8 51 1012 10 S/SE 24
Ieri h: 22:50 poco_nuvoloso Poco Nuvoloso 18 8 51 1012 10 S/SE 20.3
Ieri h: 22:20 sereno Sereno 18 8 51 1012 10 SE 14.8
Ieri h: 21:50 sereno Sereno 18 8 51 1012 10 S/SE 22.2
Ieri h: 21:20 sereno Sereno 18 8 51 1012 10 S/SE 20.3
Ieri h: 20:50 sereno Sereno 18 9 55 1012 10 S/SE 16.7
Ieri h: 20:20 sereno Sereno 18 9 55 1012 10 S/SE 16.7
Ieri h: 19:50 sereno Sereno 18 9 55 1012 10 S/SE 20.3
Ieri h: 19:20 sereno Sereno 19 9 52 1011 10 S/SE 18.5
Ieri h: 18:50 sereno Sereno 19 9 52 1011 10 S/SE 24
Ieri h: 18:20 poco_nuvoloso Poco Nuvoloso 20 9 49 1011 10 S/SE 25.9
Ieri h: 17:50 poco_nuvoloso Poco Nuvoloso 20 10 52 1011 10 S/SE 24
Ieri h: 17:20 poco_nuvoloso Poco Nuvoloso 21 10 49 1012 10 S/SE 22.2
Ieri h: 16:50 poco_nuvoloso Poco Nuvoloso 21 11 52 1012 10 S/SE 25.9
Ieri h: 16:20 nuvoloso Nuvoloso 20 11 56 1012 10 SE 25.9
Ieri h: 15:50 nuvoloso Nuvoloso 20 11 56 1012 10 S/SE 25.9
Ieri h: 15:20 nuvoloso Nuvoloso 20 12 59 1012 10 S/SE 27.8
Ieri h: 14:50 nuvoloso Nuvoloso 20 11 56 1012 10 S/SE 31.5
Ieri h: 14:20 poco_nuvoloso Poco Nuvoloso 20 11 56 1012 10 S/SE 35.2
Ieri h: 13:50 poco_nuvoloso Poco Nuvoloso 20 11 56 1012 10 S/SE 29.6
Ieri h: 13:20 poco_nuvoloso Poco Nuvoloso 20 10 52 1012 10 S/SE 33.3
Ieri h: 12:50 nuvoloso Nuvoloso 20 11 56 1012 10 S/SE 27.8
Ieri h: 12:20 nuvoloso Nuvoloso 20 10 52 1013 10 S/SE 25.9
Ieri h: 11:50 nuvoloso Nuvoloso 19 11 59 1013 10 S/SE 25.9
Ieri h: 11:20 nuvoloso Nuvoloso 19 11 59 1013 10 S/SE 25.9
Ieri h: 10:50 nuvoloso Nuvoloso 18 11 63 1012 10 S/SE 27.8
Ieri h: 10:20 nuvoloso Nuvoloso 18 10 59 1013 10 S/SE 29.6
Ieri h: 09:50 poco_nuvoloso Poco Nuvoloso 17 10 63 1013 10 S/SE 25.9
Ieri h: 09:20 poco_nuvoloso Poco Nuvoloso 16 9 63 1013 10 SE 20.3
Ieri h: 08:50 nuvoloso Nuvoloso 16 8 58 1013 10 SE 18.5
Ieri h: 08:20 nuvoloso Nuvoloso 16 7 55 1013 10 S/SE 18.5
Ieri h: 07:50 sereno Sereno 16 7 55 1012 10 S/SE 16.7
Ieri h: 07:20 sereno Sereno 16 6 51 1013 10 S/SE 14.8
Ieri h: 06:50 sereno Sereno 15 5 51 1013 10 S/SE 13
Ieri h: 06:20 sereno Sereno 15 5 51 1013 10 S/SE 11.1
Ieri h: 05:50 sereno Sereno 15 4 47 1012 10 S/SE 14.8
Ieri h: 05:20 sereno Sereno 12 4 57 1013 10 N 5.5
Ieri h: 04:50 sereno Sereno 11 4 61 1013 10 N 9.3
Ieri h: 03:50 sereno Sereno 15 4 47 1013 10 S/SE 13
Ieri h: 03:20 sereno Sereno 15 4 47 1013 10 SE 14.8
Ieri h: 02:50 sereno Sereno 15 4 47 1013 10 SE 14.8
Ieri h: 02:20 sereno Sereno 15 4 47 1014 10 SE 14.8
Ieri h: 01:50 sereno Sereno 15 4 47 1014 10 S/SE 13